Regional Weather Roundup
Issued by NWS New Orleans/Baton Rouge, LA

Home | Current Version | Previous Version | Graphics & Text | Print | Product List | Glossary On
Versions: 1 2 3 4 5 6 7 8 9 10 11 12 13 14 15 16 17 18 19 20 21 22 23 24 25 26 27 28 29 30 31 32 33 34 35 36 37 38 39 40 41 42 43 44 45 46 47 48 49 50
372
ASUS44 KLIX 030101
RWRLIX
NEW ORLEANS REGIONAL WEATHER ROUNDUP
NATIONAL WEATHER SERVICE NEW ORLEANS LA
700 PM CST MON MAR 02 2015

NOTE: "FAIR" INDICATES FEW OR NO CLOUDS BELOW 12,000 FEET WITH NO
      SIGNIFICANT WEATHER AND/OR OBSTRUCTIONS TO VISIBILITY.
      SKY/WX - SKY CONDITION AND SIGNIFICANT WEATHER.
      TMP - AIR TEMPERATURE.     DP    - DEWPOINT TEMPERATURE.
      RH  - RELATIVE HUMIDITY.   PRES  - PRESSURE.
      HI  - HEAT INDEX.          WCI   - WIND CHILL INDEX.

*  THESE STATIONS ARE NOT NWS OR FAA STATIONS AND ARE NOT UNDER
   NWS QUALITY CONTROL.

LAZ038-040-048-061>063-065>067-069-030200-
SOUTHEAST LOUISIANA

CITY           SKY/WX    TMP DP  RH WIND       PRES   REMARKS
N.O. AUDUBON   NOT AVBL
N.O. INTL ARPT MOCLDY    70  66  87 E7        30.18S
N.O. LAKEFRONT MOCLDY    68  64  87 SE7       30.19S
SLIDELL        CLOUDY    68  67  96 SE7       30.18S
BATON ROUGE    CLOUDY    61  60  97 N3        30.20R FOG
BOOTHVILLE     PTCLDY    71  68  90 SE5       30.20S
BELLE CHASSE   MOCLDY    67  64  90 E5        30.18S
BOGALUSA*        N/A     66  63  89 CALM      30.21S
GALLIANO*      PTCLDY    73  68  87 CALM      30.19S
NEW ROADS*     NOT AVBL
GONZALES*      NOT AVBL
HAMMOND*       NOT AVBL
HOUMA*         PTCLDY    70  69  95 S3        30.17S
PORT FOURCHON* PTCLDY    70  68  94 SE7       30.22S FOG

$$

MSZ070-080>082-030200-
SOUTHERN MISSISSIPPI

CITY           SKY/WX    TMP DP  RH WIND       PRES   REMARKS
MCCOMB         CLOUDY    63  61  93 NE3       30.20S FOG
GULFPORT       FOG       63  63 100 E6        30.20F VSB 1/4
BILOXI         MOCLDY    64  64 100 E3        30.20S FOG
PASCAGOULA     CLOUDY    64  64 100 SE3       30.21S FOG
STENNIS ARPT*  CLOUDY    64  63  94 CALM      30.20S FOG

$$

COASTAL OBSERVATIONS
LAKE AND NEARSHORE STATIONS

STATION/POSITION TIME  TEMP    WIND        PRES    WAVE
                       AIR SEA DIR/SP/G            HT/PER
                 (UTC) (F)     (DEG/KT/KT) (MB)    (FT/S)
PASCAGOULA       0000                      1022.5
WAVELAND YACHT   0000      55              1022.5
GRAND ISLE       0000      61              1022.9
SOUTHWEST PASS   0000      48              1022.9
NEW CANAL        0000                      1022.4
SHELL BEACH      0000      58              1022.3

OFFSHORE STATIONS

STATION/POSITION TIME  TEMP    WIND        PRES    WAVE
                       AIR SEA DIR/SP/G            HT/PER
                 (UTC) (F)     (DEG/KT/KT) (MB)    (FT/S)
64 S DAUPHIN ISL 0045   70 72  140/ 10/ 12 1023.5    3/ 6

$$




USA.gov is the U.S. government's official web portal to all federal, state and local government web resources and services.